Time,TemperatureF,DewpointF,PressureIn,WindDirection,WindDirectionDegrees,WindSpeedMPH,WindSpeedGustMPH,Humidity,HourlyPrecipIn,Conditions,Clouds,dailyrainin,SoftwareType,DateUTC
2013-05-08 00:01:00,62.3,53.7,30.04,SSW,200,0.0,1.0,73,0.00,,,0.00,WUHU216DAVISVP2,2013-05-08 04:01:00,
2013-05-08 00:02:00,62.1,53.7,30.04,SSW,200,0.0,1.0,74,0.00,,,0.00,WUHU216DAVISVP2,2013-05-08 04:02:00,
2013-05-08 00:07:00,61.8,53.5,30.04,SSW,200,0.0,1.0,74,0.00,,,0.00,WUHU216DAVISVP2,2013-05-08 04:07:00,
2013-05-08 00:13:00,61.3,53.4,30.05,SSW,200,0.0,0.0,75,0.00,,,0.00,WUHU216DAVISVP2,2013-05-08 04:13:00,
2013-05-08 00:18:00,60.7,53.5,30.05,SSW,199,0.0,0.0,77,0.00,,,0.00,WUHU216DAVISVP2,2013-05-08 04:18:00,
2013-05-08 00:23:00,60.4,53.9,30.05,SSW,200,0.0,1.0,79,0.00,,,0.00,WUHU216DAVISVP2,2013-05-08 04:23:00,
2013-05-08 00:28:00,60.3,53.8,30.05,SSW,200,0.0,1.0,79,0.00,,,0.00,WUHU216DAVISVP2,2013-05-08 04:28:00,
2013-05-08 00:35:00,60.1,54.3,30.05,SSW,200,0.0,1.0,81,0.00,,,0.00,WUHU216DAVISVP2,2013-05-08 04:35:00,
2013-05-08 00:40:00,60.2,54.7,30.05,SSW,200,0.0,0.0,82,0.00,,,0.00,WUHU216DAVISVP2,2013-05-08 04:40:00,
2013-05-08 00:46:00,60.4,54.6,30.05,SSE,166,0.0,1.0,81,0.00,,,0.00,WUHU216DAVISVP2,2013-05-08 04:46:00,
2013-05-08 00:51:00,60.6,54.5,30.05,SSE,167,0.0,1.0,80,0.00,,,0.00,WUHU216DAVISVP2,2013-05-08 04:51:00,
2013-05-08 00:56:00,60.6,54.1,30.05,SSE,165,0.0,1.0,79,0.00,,,0.00,WUHU216DAVISVP2,2013-05-08 04:56:00,
2013-05-08 01:01:00,60.5,54.0,30.04,SSE,165,0.0,1.0,79,0.00,,,0.00,WUHU216DAVISVP2,2013-05-08 05:01:00,
2013-05-08 01:08:00,60.3,53.8,30.04,SSE,165,0.0,1.0,79,0.00,,,0.00,WUHU216DAVISVP2,2013-05-08 05:08:00,
2013-05-08 01:13:00,60.5,53.7,30.04,SSE,165,0.0,0.0,78,0.00,,,0.00,WUHU216DAVISVP2,2013-05-08 05:13:00,
2013-05-08 01:18:00,60.5,53.3,30.04,SSE,165,0.0,0.0,77,0.00,,,0.00,WUHU216DAVISVP2,2013-05-08 05:18:00,
2013-05-08 01:24:00,60.4,53.6,30.04,SSE,165,0.0,0.0,78,0.00,,,0.00,WUHU216DAVISVP2,2013-05-08 05:24:00,
2013-05-08 01:29:00,60.1,53.3,30.04,SSE,165,0.0,0.0,78,0.00,,,0.00,WUHU216DAVISVP2,2013-05-08 05:29:00,
2013-05-08 01:35:00,60.0,53.5,30.04,SSE,165,0.0,0.0,79,0.00,,,0.00,WUHU216DAVISVP2,2013-05-08 05:35:00,
2013-05-08 01:40:00,59.7,53.6,30.03,SSE,165,0.0,0.0,80,0.00,,,0.00,WUHU216DAVISVP2,2013-05-08 05:40:00,
2013-05-08 01:45:00,59.3,53.2,30.04,SSE,165,0.0,0.0,80,0.00,,,0.00,WUHU216DAVISVP2,2013-05-08 05:45:00,
2013-05-08 01:50:00,59.2,53.4,30.03,SSE,165,0.0,0.0,81,0.00,,,0.00,WUHU216DAVISVP2,2013-05-08 05:50:00,
2013-05-08 01:55:00,59.2,53.4,30.03,SSE,165,0.0,0.0,81,0.00,,,0.00,WUHU216DAVISVP2,2013-05-08 05:55:00,
2013-05-08 02:01:00,59.2,53.4,30.03,SSE,165,0.0,0.0,81,0.00,,,0.00,WUHU216DAVISVP2,2013-05-08 06:01:00,
2013-05-08 02:06:00,58.8,53.4,30.03,SSE,165,0.0,0.0,82,0.00,,,0.00,WUHU216DAVISVP2,2013-05-08 06:06:00,
2013-05-08 02:11:00,58.8,53.0,30.03,SSE,165,0.0,0.0,81,0.00,,,0.00,WUHU216DAVISVP2,2013-05-08 06:11:00,
2013-05-08 02:16:00,58.8,53.0,30.03,SSE,165,0.0,0.0,81,0.00,,,0.00,WUHU216DAVISVP2,2013-05-08 06:16:00,
2013-05-08 02:21:00,58.9,53.4,30.03,SSE,165,0.0,0.0,82,0.00,,,0.00,WUHU216DAVISVP2,2013-05-08 06:21:00,
2013-05-08 02:27:00,59.0,53.2,30.03,SSE,165,0.0,0.0,81,0.00,,,0.00,WUHU216DAVISVP2,2013-05-08 06:27:00,
2013-05-08 02:32:00,59.1,53.3,30.03,SSE,165,0.0,0.0,81,0.00,,,0.00,WUHU216DAVISVP2,2013-05-08 06:32:00,
2013-05-08 02:37:00,59.2,53.4,30.03,SSE,165,0.0,1.0,81,0.00,,,0.00,WUHU216DAVISVP2,2013-05-08 06:37:00,
2013-05-08 02:42:00,59.2,53.4,30.03,SSE,165,0.0,1.0,81,0.00,,,0.00,WUHU216DAVISVP2,2013-05-08 06:42:00,
2013-05-08 02:47:00,59.1,53.3,30.03,SSE,165,0.0,1.0,81,0.00,,,0.00,WUHU216DAVISVP2,2013-05-08 06:47:00,
2013-05-08 02:53:00,59.0,52.9,30.03,SSE,165,0.0,0.0,80,0.00,,,0.00,WUHU216DAVISVP2,2013-05-08 06:53:00,
2013-05-08 03:00:00,58.9,52.8,30.03,SSE,165,0.0,0.0,80,0.00,,,0.00,WUHU216DAVISVP2,2013-05-08 07:00:00,
2013-05-08 03:05:00,58.7,52.6,30.03,SSE,165,0.0,0.0,80,0.00,,,0.00,WUHU216DAVISVP2,2013-05-08 07:05:00,
2013-05-08 03:10:00,58.6,52.2,30.03,SSE,165,0.0,0.0,79,0.00,,,0.00,WUHU216DAVISVP2,2013-05-08 07:10:00,
2013-05-08 03:16:00,58.6,51.8,30.03,SSE,165,0.0,0.0,78,0.00,,,0.00,WUHU216DAVISVP2,2013-05-08 07:16:00,
2013-05-08 03:21:00,58.3,51.9,30.03,SSE,165,0.0,0.0,79,0.00,,,0.00,WUHU216DAVISVP2,2013-05-08 07:21:00,
2013-05-08 03:26:00,58.0,51.9,30.03,SSE,165,0.0,0.0,80,0.00,,,0.00,WUHU216DAVISVP2,2013-05-08 07:26:00,
2013-05-08 03:31:00,57.8,52.4,30.02,SSE,165,0.0,0.0,82,0.00,,,0.00,WUHU216DAVISVP2,2013-05-08 07:31:00,
2013-05-08 03:37:00,58.0,52.6,30.03,SSE,165,0.0,0.0,82,0.00,,,0.00,WUHU216DAVISVP2,2013-05-08 07:37:00,
2013-05-08 03:43:00,58.1,52.7,30.03,SSE,165,0.0,0.0,82,0.00,,,0.00,WUHU216DAVISVP2,2013-05-08 07:43:00,
2013-05-08 03:48:00,58.2,53.1,30.02,SSE,165,0.0,0.0,83,0.00,,,0.00,WUHU216DAVISVP2,2013-05-08 07:48:00,
2013-05-08 03:53:00,58.6,53.1,30.03,SSE,165,0.0,0.0,82,0.00,,,0.00,WUHU216DAVISVP2,2013-05-08 07:53:00,
2013-05-08 03:58:00,58.7,53.5,30.03,SSE,165,0.0,0.0,83,0.00,,,0.00,WUHU216DAVISVP2,2013-05-08 07:58:00,
2013-05-08 04:05:00,58.6,53.5,30.03,SSE,165,0.0,0.0,83,0.00,,,0.00,WUHU216DAVISVP2,2013-05-08 08:05:00,
2013-05-08 04:12:00,58.1,53.3,30.03,SSE,165,0.0,0.0,84,0.00,,,0.00,WUHU216DAVISVP2,2013-05-08 08:12:00,
2013-05-08 04:20:00,57.8,53.3,30.03,SSE,165,0.0,0.0,85,0.00,,,0.00,WUHU216DAVISVP2,2013-05-08 08:20:00,
2013-05-08 04:25:00,57.7,53.5,30.03,SSE,165,0.0,0.0,86,0.00,,,0.00,WUHU216DAVISVP2,2013-05-08 08:25:00,
2013-05-08 04:30:00,57.6,53.4,30.03,SSE,165,0.0,0.0,86,0.00,,,0.00,WUHU216DAVISVP2,2013-05-08 08:30:00,
2013-05-08 04:35:00,57.3,53.1,30.03,SSE,165,0.0,0.0,86,0.00,,,0.00,WUHU216DAVISVP2,2013-05-08 08:35:00,
2013-05-08 04:40:00,57.0,52.8,30.04,SSE,165,0.0,0.0,86,0.00,,,0.00,WUHU216DAVISVP2,2013-05-08 08:40:00,
2013-05-08 04:46:00,57.0,53.2,30.04,SSE,162,0.0,0.0,87,0.00,,,0.00,WUHU216DAVISVP2,2013-05-08 08:46:00,
2013-05-08 04:54:00,57.0,53.2,30.04,SSE,156,0.0,0.0,87,0.00,,,0.00,WUHU216DAVISVP2,2013-05-08 08:54:00,
2013-05-08 05:04:00,57.2,54.0,30.04,SSE,157,0.0,0.0,89,0.00,,,0.00,WUHU216DAVISVP2,2013-05-08 09:04:00,
2013-05-08 05:10:00,57.6,54.1,30.04,SE,145,0.0,0.0,88,0.00,,,0.00,WUHU216DAVISVP2,2013-05-08 09:10:00,
2013-05-08 05:15:00,58.0,53.8,30.04,NNE,26,0.0,2.0,86,0.00,,,0.00,WUHU216DAVISVP2,2013-05-08 09:15:00,
2013-05-08 05:21:00,58.1,53.6,30.04,NNE,23,0.0,2.0,85,0.00,,,0.00,WUHU216DAVISVP2,2013-05-08 09:21:00,
2013-05-08 05:27:00,58.1,53.6,30.04,NNE,25,0.0,2.0,85,0.00,,,0.00,WUHU216DAVISVP2,2013-05-08 09:27:00,
2013-05-08 05:32:00,58.0,53.5,30.04,NNE,25,0.0,2.0,85,0.00,,,0.00,WUHU216DAVISVP2,2013-05-08 09:32:00,
2013-05-08 05:38:00,58.1,53.6,30.04,NE,41,0.0,1.0,85,0.00,,,0.00,WUHU216DAVISVP2,2013-05-08 09:38:00,
2013-05-08 05:43:00,58.3,53.5,30.04,NE,44,1.0,2.0,84,0.00,,,0.00,WUHU216DAVISVP2,2013-05-08 09:43:00,
2013-05-08 05:48:00,58.3,53.5,30.04,NE,39,0.0,2.0,84,0.00,,,0.00,WUHU216DAVISVP2,2013-05-08 09:48:00,
2013-05-08 05:55:00,58.2,53.4,30.04,NNE,20,1.0,2.0,84,0.00,,,0.00,WUHU216DAVISVP2,2013-05-08 09:55:00,
2013-05-08 06:00:00,58.5,53.4,30.04,NNE,32,0.0,3.0,83,0.00,,,0.00,WUHU216DAVISVP2,2013-05-08 10:00:00,
2013-05-08 06:05:00,58.4,53.3,30.04,NE,49,2.0,3.0,83,0.00,,,0.00,WUHU216DAVISVP2,2013-05-08 10:05:00,
2013-05-08 06:10:00,58.4,53.3,30.04,NE,38,0.0,3.0,83,0.00,,,0.00,WUHU216DAVISVP2,2013-05-08 10:10:00,
2013-05-08 06:16:00,58.3,53.2,30.04,ENE,67,0.0,3.0,83,0.00,,,0.00,WUHU216DAVISVP2,2013-05-08 10:16:00,
2013-05-08 06:22:00,58.5,53.4,30.04,ENE,67,0.0,3.0,83,0.00,,,0.00,WUHU216DAVISVP2,2013-05-08 10:22:00,
2013-05-08 06:27:00,59.2,54.1,30.04,ESE,105,1.0,3.0,83,0.00,,,0.00,WUHU216DAVISVP2,2013-05-08 10:27:00,
2013-05-08 06:32:00,60.1,54.3,30.05,East,93,0.0,4.0,81,0.00,,,0.00,WUHU216DAVISVP2,2013-05-08 10:32:00,
2013-05-08 06:37:00,60.9,54.7,30.05,ESE,109,0.0,4.0,80,0.00,,,0.00,WUHU216DAVISVP2,2013-05-08 10:37:00,
2013-05-08 06:42:00,61.4,54.9,30.05,East,88,1.0,3.0,79,0.00,,,0.00,WUHU216DAVISVP2,2013-05-08 10:42:00,
2013-05-08 06:47:00,61.5,55.0,30.05,East,92,2.0,3.0,79,0.00,,,0.00,WUHU216DAVISVP2,2013-05-08 10:47:00,
2013-05-08 06:52:00,61.2,54.7,30.05,East,91,4.0,4.0,79,0.00,,,0.00,WUHU216DAVISVP2,2013-05-08 10:52:00,
2013-05-08 06:57:00,61.2,55.0,30.05,ESE,106,1.0,4.0,80,0.00,,,0.00,WUHU216DAVISVP2,2013-05-08 10:57:00,
2013-05-08 07:05:00,61.2,55.0,30.05,East,89,1.0,4.0,80,0.00,,,0.00,WUHU216DAVISVP2,2013-05-08 11:05:00,
2013-05-08 07:10:00,61.4,55.9,30.05,ESE,106,1.0,4.0,82,0.00,,,0.00,WUHU216DAVISVP2,2013-05-08 11:10:00,
2013-05-08 07:15:00,61.4,55.9,30.06,ENE,71,1.0,2.0,82,0.00,,,0.00,WUHU216DAVISVP2,2013-05-08 11:15:00,
2013-05-08 07:21:00,61.4,56.2,30.06,East,99,1.0,2.0,83,0.00,,,0.00,WUHU216DAVISVP2,2013-05-08 11:21:00,
2013-05-08 07:26:00,61.4,56.5,30.06,East,95,0.0,2.0,84,0.00,,,0.00,WUHU216DAVISVP2,2013-05-08 11:26:00,
2013-05-08 07:31:00,61.3,56.1,30.06,ENE,78,1.0,2.0,83,0.00,,,0.00,WUHU216DAVISVP2,2013-05-08 11:31:00,
2013-05-08 07:37:00,61.3,56.4,30.06,East,98,0.0,2.0,84,0.00,,,0.00,WUHU216DAVISVP2,2013-05-08 11:37:00,
2013-05-08 07:42:00,61.2,56.3,30.06,ENE,70,2.0,3.0,84,0.00,,,0.00,WUHU216DAVISVP2,2013-05-08 11:42:00,
2013-05-08 07:47:00,61.3,56.4,30.06,ESE,103,1.0,4.0,84,0.00,,,0.00,WUHU216DAVISVP2,2013-05-08 11:47:00,
2013-05-08 07:52:00,61.5,56.6,30.06,East,96,0.0,4.0,84,0.00,,,0.00,WUHU216DAVISVP2,2013-05-08 11:52:00,
2013-05-08 07:58:00,61.8,56.6,30.06,ENE,72,1.0,3.0,83,0.00,,,0.00,WUHU216DAVISVP2,2013-05-08 11:58:00,
2013-05-08 08:04:00,62.1,57.2,30.06,ESE,112,1.0,3.0,84,0.00,,,0.00,WUHU216DAVISVP2,2013-05-08 12:04:00,
2013-05-08 08:09:00,62.3,56.7,30.06,ENE,68,2.0,6.0,82,0.00,,,0.00,WUHU216DAVISVP2,2013-05-08 12:09:00,
2013-05-08 08:14:00,62.5,57.0,30.06,East,94,2.0,6.0,82,0.00,,,0.00,WUHU216DAVISVP2,2013-05-08 12:14:00,
2013-05-08 08:20:00,62.7,57.2,30.06,East,92,0.0,5.0,82,0.00,,,0.00,WUHU216DAVISVP2,2013-05-08 12:20:00,
2013-05-08 08:25:00,62.9,57.0,30.06,East,92,2.0,5.0,81,0.00,,,0.00,WUHU216DAVISVP2,2013-05-08 12:25:00,
2013-05-08 08:30:00,63.0,56.5,30.07,East,80,2.0,6.0,79,0.00,,,0.00,WUHU216DAVISVP2,2013-05-08 12:30:00,
2013-05-08 08:35:00,63.0,56.5,30.07,ESE,120,3.0,6.0,79,0.00,,,0.00,WUHU216DAVISVP2,2013-05-08 12:35:00,
2013-05-08 08:41:00,63.0,56.8,30.06,ESE,105,3.0,6.0,80,0.00,,,0.00,WUHU216DAVISVP2,2013-05-08 12:41:00,
2013-05-08 08:47:00,63.0,56.8,30.06,East,100,2.0,6.0,80,0.00,,,0.00,WUHU216DAVISVP2,2013-05-08 12:47:00,
2013-05-08 08:52:00,63.2,56.7,30.06,ENE,74,5.0,5.0,79,0.00,,,0.00,WUHU216DAVISVP2,2013-05-08 12:52:00,
2013-05-08 08:57:00,63.3,56.8,30.07,ENE,60,2.0,6.0,79,0.00,,,0.00,WUHU216DAVISVP2,2013-05-08 12:57:00,
2013-05-08 09:02:00,63.7,57.5,30.07,ESE,104,2.0,6.0,80,0.00,,,0.00,WUHU216DAVISVP2,2013-05-08 13:02:00,
2013-05-08 09:07:00,64.2,57.3,30.07,SE,143,2.0,6.0,78,0.00,,,0.00,WUHU216DAVISVP2,2013-05-08 13:07:00,
2013-05-08 09:13:00,64.5,57.2,30.07,NNE,32,2.0,8.0,77,0.00,,,0.00,WUHU216DAVISVP2,2013-05-08 13:13:00,
2013-05-08 09:18:00,65.3,57.7,30.07,East,80,2.0,8.0,76,0.00,,,0.00,WUHU216DAVISVP2,2013-05-08 13:18:00,
2013-05-08 09:23:00,65.9,57.5,30.06,ENE,73,2.0,8.0,74,0.00,,,0.00,WUHU216DAVISVP2,2013-05-08 13:23:00,
2013-05-08 09:28:00,65.9,56.8,30.06,East,86,1.0,5.0,72,0.00,,,0.00,WUHU216DAVISVP2,2013-05-08 13:28:00,
2013-05-08 09:33:00,65.8,57.0,30.06,SE,131,0.0,5.0,73,0.00,,,0.00,WUHU216DAVISVP2,2013-05-08 13:33:00,
2013-05-08 09:38:00,66.1,57.7,30.06,South,173,0.0,5.0,74,0.00,,,0.00,WUHU216DAVISVP2,2013-05-08 13:38:00,
2013-05-08 09:43:00,66.8,57.6,30.06,SW,217,0.0,5.0,72,0.00,,,0.00,WUHU216DAVISVP2,2013-05-08 13:43:00,
2013-05-08 09:49:00,67.6,58.0,30.06,East,94,1.0,3.0,71,0.00,,,0.00,WUHU216DAVISVP2,2013-05-08 13:49:00,
2013-05-08 09:54:00,67.7,58.5,30.06,SW,228,0.0,3.0,72,0.00,,,0.00,WUHU216DAVISVP2,2013-05-08 13:54:00,
2013-05-08 09:59:00,67.9,58.3,30.05,ENE,73,4.0,5.0,71,0.00,,,0.00,WUHU216DAVISVP2,2013-05-08 13:59:00,
2013-05-08 10:05:00,67.6,58.0,30.06,SSE,150,1.0,5.0,71,0.00,,,0.00,WUHU216DAVISVP2,2013-05-08 14:05:00,
2013-05-08 10:10:00,67.8,58.2,30.06,South,190,2.0,6.0,71,0.00,,,0.00,WUHU216DAVISVP2,2013-05-08 14:10:00,
2013-05-08 10:15:00,68.0,58.0,30.05,SSW,195,2.0,6.0,70,0.00,,,0.00,WUHU216DAVISVP2,2013-05-08 14:15:00,
2013-05-08 10:20:00,68.5,58.7,30.05,ESE,118,3.0,6.0,71,0.00,,,0.00,WUHU216DAVISVP2,2013-05-08 14:20:00,
2013-05-08 10:26:00,68.5,58.1,30.05,SE,124,2.0,7.0,69,0.00,,,0.00,WUHU216DAVISVP2,2013-05-08 14:26:00,
2013-05-08 10:32:00,68.3,58.7,30.06,SE,124,3.0,7.0,71,0.00,,,0.00,WUHU216DAVISVP2,2013-05-08 14:32:00,
2013-05-08 10:37:00,68.0,58.0,30.05,SSE,154,4.0,6.0,70,0.00,,,0.00,WUHU216DAVISVP2,2013-05-08 14:37:00,
2013-05-08 10:42:00,67.9,58.3,30.05,SE,146,1.0,6.0,71,0.00,,,0.00,WUHU216DAVISVP2,2013-05-08 14:42:00,
2013-05-08 10:48:00,68.1,58.5,30.05,SE,146,1.0,6.0,71,0.00,,,0.00,WUHU216DAVISVP2,2013-05-08 14:48:00,
2013-05-08 10:53:00,68.2,58.0,30.05,SE,141,4.0,6.0,70,0.00,,,0.00,WUHU216DAVISVP2,2013-05-08 14:53:00,
2013-05-08 10:58:00,67.9,58.1,30.05,South,172,5.0,9.0,71,0.00,,,0.00,WUHU216DAVISVP2,2013-05-08 14:58:00,
2013-05-08 11:04:00,67.8,57.7,30.05,SSE,149,2.0,9.0,70,0.00,,,0.00,WUHU216DAVISVP2,2013-05-08 15:04:00,
2013-05-08 11:09:00,67.9,57.9,30.05,SSW,201,2.0,9.0,70,0.00,,,0.00,WUHU216DAVISVP2,2013-05-08 15:09:00,
2013-05-08 11:15:00,67.7,57.3,30.05,SSE,165,2.0,8.0,69,0.00,,,0.00,WUHU216DAVISVP2,2013-05-08 15:15:00,
2013-05-08 11:20:00,67.4,57.0,30.04,SSE,154,2.0,6.0,69,0.00,,,0.00,WUHU216DAVISVP2,2013-05-08 15:20:00,
2013-05-08 11:25:00,67.3,57.3,30.04,South,177,3.0,10.0,70,0.00,,,0.00,WUHU216DAVISVP2,2013-05-08 15:25:00,
2013-05-08 11:30:00,67.4,57.8,30.04,SSW,196,1.0,10.0,71,0.00,,,0.00,WUHU216DAVISVP2,2013-05-08 15:30:00,
2013-05-08 11:35:00,67.6,57.6,30.04,SSE,149,0.0,10.0,70,0.00,,,0.00,WUHU216DAVISVP2,2013-05-08 15:35:00,
2013-05-08 11:41:00,67.8,57.8,30.04,SSE,166,2.0,10.0,70,0.00,,,0.00,WUHU216DAVISVP2,2013-05-08 15:41:00,
2013-05-08 11:46:00,67.9,57.5,30.04,SSE,162,3.0,5.0,69,0.00,,,0.00,WUHU216DAVISVP2,2013-05-08 15:46:00,
2013-05-08 11:51:00,68.0,58.0,30.04,SSE,166,2.0,7.0,70,0.00,,,0.00,WUHU216DAVISVP2,2013-05-08 15:51:00,
2013-05-08 11:56:00,68.2,58.2,30.04,SSE,158,2.0,7.0,70,0.00,,,0.00,WUHU216DAVISVP2,2013-05-08 15:56:00,
2013-05-08 12:01:00,68.4,58.0,30.04,SW,218,0.0,7.0,69,0.00,,,0.00,WUHU216DAVISVP2,2013-05-08 16:01:00,
2013-05-08 12:06:00,68.4,58.0,30.04,SE,137,1.0,6.0,69,0.00,,,0.00,WUHU216DAVISVP2,2013-05-08 16:06:00,
2013-05-08 12:13:00,68.6,58.2,30.04,SE,146,2.0,6.0,69,0.00,,,0.00,WUHU216DAVISVP2,2013-05-08 16:13:00,
2013-05-08 12:18:00,68.7,57.9,30.03,SW,231,3.0,6.0,68,0.00,,,0.00,WUHU216DAVISVP2,2013-05-08 16:18:00,
2013-05-08 12:23:00,68.7,58.3,30.03,SE,144,1.0,6.0,69,0.00,,,0.00,WUHU216DAVISVP2,2013-05-08 16:23:00,
2013-05-08 12:28:00,68.7,58.3,30.03,East,85,0.0,5.0,69,0.00,,,0.00,WUHU216DAVISVP2,2013-05-08 16:28:00,
2013-05-08 12:33:00,68.8,58.4,30.03,SE,141,0.0,5.0,69,0.00,,,0.00,WUHU216DAVISVP2,2013-05-08 16:33:00,
2013-05-08 12:39:00,69.0,58.6,30.03,SSW,192,0.0,4.0,69,0.00,,,0.00,WUHU216DAVISVP2,2013-05-08 16:39:00,
2013-05-08 12:44:00,69.2,58.8,30.03,South,180,0.0,3.0,69,0.00,,,0.00,WUHU216DAVISVP2,2013-05-08 16:44:00,
2013-05-08 12:49:00,69.2,59.6,30.03,ESE,122,0.0,3.0,71,0.00,,,0.00,WUHU216DAVISVP2,2013-05-08 16:49:00,
2013-05-08 12:55:00,69.1,59.1,30.03,ESE,122,0.0,3.0,70,0.00,,,0.00,WUHU216DAVISVP2,2013-05-08 16:55:00,
2013-05-08 13:00:00,69.0,59.4,30.03,SSE,149,1.0,2.0,71,0.00,,,0.00,WUHU216DAVISVP2,2013-05-08 17:00:00,
2013-05-08 13:05:00,68.5,60.0,30.03,SSW,208,0.0,2.0,74,0.00,,,0.00,WUHU216DAVISVP2,2013-05-08 17:05:00,
2013-05-08 13:10:00,68.1,60.0,30.03,SE,137,1.0,3.0,75,0.00,,,0.00,WUHU216DAVISVP2,2013-05-08 17:10:00,
2013-05-08 13:16:00,67.7,60.0,30.03,SW,215,0.0,3.0,76,0.00,,,0.00,WUHU216DAVISVP2,2013-05-08 17:16:00,
2013-05-08 13:21:00,67.1,60.1,30.03,SSE,148,3.0,6.0,78,0.00,,,0.00,WUHU216DAVISVP2,2013-05-08 17:21:00,
2013-05-08 13:28:00,67.0,60.7,30.03,South,177,1.0,6.0,80,0.00,,,0.00,WUHU216DAVISVP2,2013-05-08 17:28:00,
2013-05-08 13:33:00,66.7,60.4,30.03,SW,229,0.0,6.0,80,0.00,,,0.00,WUHU216DAVISVP2,2013-05-08 17:33:00,
2013-05-08 13:39:00,66.5,60.6,30.03,West,263,2.0,4.0,81,0.00,,,0.00,WUHU216DAVISVP2,2013-05-08 17:39:00,
2013-05-08 13:44:00,65.5,60.9,30.03,South,182,0.0,7.0,85,0.01,,,0.01,WUHU216DAVISVP2,2013-05-08 17:44:00,
2013-05-08 13:50:00,65.3,60.7,30.03,WSW,253,2.0,7.0,85,0.01,,,0.01,WUHU216DAVISVP2,2013-05-08 17:50:00,
2013-05-08 13:55:00,65.3,60.7,30.03,SW,228,2.0,7.0,85,0.01,,,0.01,WUHU216DAVISVP2,2013-05-08 17:55:00,
2013-05-08 14:01:00,65.0,60.7,30.02,SW,228,0.0,4.0,86,0.01,,,0.01,WUHU216DAVISVP2,2013-05-08 18:01:00,
2013-05-08 14:06:00,65.5,61.5,30.02,SE,141,0.0,4.0,87,0.01,,,0.01,WUHU216DAVISVP2,2013-05-08 18:06:00,
2013-05-08 14:11:00,65.8,60.9,30.02,SSE,154,1.0,4.0,84,0.01,,,0.01,WUHU216DAVISVP2,2013-05-08 18:11:00,
2013-05-08 14:17:00,66.0,61.7,30.02,SE,144,0.0,3.0,86,0.01,,,0.01,WUHU216DAVISVP2,2013-05-08 18:17:00,
2013-05-08 14:22:00,66.2,61.3,30.02,WSW,245,0.0,3.0,84,0.01,,,0.01,WUHU216DAVISVP2,2013-05-08 18:22:00,
2013-05-08 14:27:00,66.5,61.5,30.01,SW,233,0.0,3.0,84,0.01,,,0.01,WUHU216DAVISVP2,2013-05-08 18:27:00,
2013-05-08 14:33:00,66.3,60.4,30.01,ENE,71,3.0,4.0,81,0.01,,,0.01,WUHU216DAVISVP2,2013-05-08 18:33:00,
2013-05-08 14:39:00,66.9,61.6,30.01,SSW,211,0.0,4.0,83,0.01,,,0.01,WUHU216DAVISVP2,2013-05-08 18:39:00,
2013-05-08 14:44:00,67.5,61.5,30.01,East,83,3.0,7.0,81,0.00,,,0.01,WUHU216DAVISVP2,2013-05-08 18:44:00,
2013-05-08 14:49:00,67.4,61.1,30.01,East,89,4.0,7.0,80,0.00,,,0.01,WUHU216DAVISVP2,2013-05-08 18:49:00,
2013-05-08 14:54:00,67.8,61.5,30.00,SSE,163,2.0,7.0,80,0.00,,,0.01,WUHU216DAVISVP2,2013-05-08 18:54:00,
2013-05-08 14:59:00,68.0,60.2,30.00,ESE,108,4.0,11.0,76,0.00,,,0.01,WUHU216DAVISVP2,2013-05-08 18:59:00,
2013-05-08 15:05:00,68.2,60.3,30.00,ESE,114,4.0,11.0,76,0.00,,,0.01,WUHU216DAVISVP2,2013-05-08 19:05:00,
2013-05-08 15:10:00,68.5,60.3,29.99,East,94,5.0,11.0,75,0.00,,,0.01,WUHU216DAVISVP2,2013-05-08 19:10:00,
2013-05-08 15:16:00,68.6,60.5,29.99,East,81,5.0,8.0,75,0.00,,,0.01,WUHU216DAVISVP2,2013-05-08 19:16:00,
2013-05-08 15:21:00,68.9,61.1,29.99,ENE,68,9.0,10.0,76,0.00,,,0.01,WUHU216DAVISVP2,2013-05-08 19:21:00,
2013-05-08 15:26:00,68.9,61.1,29.98,ENE,71,7.0,10.0,76,0.00,,,0.01,WUHU216DAVISVP2,2013-05-08 19:26:00,
2013-05-08 15:31:00,69.2,61.1,29.98,NE,47,3.0,8.0,75,0.00,,,0.01,WUHU216DAVISVP2,2013-05-08 19:31:00,
2013-05-08 15:37:00,69.2,60.7,29.98,NNE,20,4.0,8.0,74,0.00,,,0.01,WUHU216DAVISVP2,2013-05-08 19:37:00,
2013-05-08 15:43:00,68.6,60.1,29.98,ESE,121,4.0,10.0,74,0.00,,,0.01,WUHU216DAVISVP2,2013-05-08 19:43:00,
2013-05-08 15:48:00,67.9,59.8,29.97,ESE,117,6.0,10.0,75,0.00,,,0.01,WUHU216DAVISVP2,2013-05-08 19:48:00,
2013-05-08 15:53:00,67.7,60.7,29.97,East,94,10.0,10.0,78,0.01,,,0.02,WUHU216DAVISVP2,2013-05-08 19:53:00,
2013-05-08 15:58:00,67.6,59.2,29.97,SE,141,4.0,12.0,74,0.01,,,0.02,WUHU216DAVISVP2,2013-05-08 19:58:00,
2013-05-08 16:03:00,67.8,59.3,29.97,East,83,5.0,12.0,74,0.01,,,0.02,WUHU216DAVISVP2,2013-05-08 20:03:00,
2013-05-08 16:08:00,68.2,60.5,29.97,ESE,122,3.0,12.0,76,0.01,,,0.02,WUHU216DAVISVP2,2013-05-08 20:08:00,
2013-05-08 16:15:00,68.6,59.2,29.97,East,98,3.0,11.0,72,0.01,,,0.02,WUHU216DAVISVP2,2013-05-08 20:15:00,
2013-05-08 16:20:00,69.0,59.2,29.97,East,99,4.0,11.0,71,0.01,,,0.02,WUHU216DAVISVP2,2013-05-08 20:20:00,
2013-05-08 16:26:00,69.4,59.6,29.96,SSE,148,3.0,11.0,71,0.01,,,0.02,WUHU216DAVISVP2,2013-05-08 20:26:00,
2013-05-08 16:31:00,69.7,59.9,29.96,ENE,76,4.0,11.0,71,0.01,,,0.02,WUHU216DAVISVP2,2013-05-08 20:31:00,
2013-05-08 16:37:00,69.5,59.9,29.96,SE,135,5.0,13.0,71,0.01,,,0.02,WUHU216DAVISVP2,2013-05-08 20:37:00,
2013-05-08 16:42:00,69.2,59.9,29.96,ENE,73,2.0,13.0,72,0.01,,,0.02,WUHU216DAVISVP2,2013-05-08 20:42:00,
2013-05-08 16:47:00,69.1,59.5,29.96,East,91,8.0,11.0,71,0.01,,,0.02,WUHU216DAVISVP2,2013-05-08 20:47:00,
2013-05-08 16:52:00,68.9,59.7,29.96,SSE,158,2.0,11.0,72,0.01,,,0.02,WUHU216DAVISVP2,2013-05-08 20:52:00,
2013-05-08 16:58:00,68.9,59.7,29.96,ENE,64,2.0,11.0,72,0.00,,,0.02,WUHU216DAVISVP2,2013-05-08 20:58:00,
2013-05-08 17:02:00,68.9,60.0,29.95,ENE,75,4.0,12.0,73,0.00,,,0.02,WUHU216DAVISVP2,2013-05-08 21:02:00,
2013-05-08 17:08:00,69.1,59.9,29.95,ENE,58,4.0,12.0,72,0.00,,,0.02,WUHU216DAVISVP2,2013-05-08 21:08:00,
2013-05-08 17:13:00,69.2,59.9,29.95,SE,128,5.0,11.0,72,0.00,,,0.02,WUHU216DAVISVP2,2013-05-08 21:13:00,
2013-05-08 17:18:00,68.8,59.6,29.95,ESE,107,5.0,12.0,72,0.00,,,0.02,WUHU216DAVISVP2,2013-05-08 21:18:00,
2013-05-08 17:24:00,68.6,59.7,29.95,ESE,105,3.0,12.0,73,0.00,,,0.02,WUHU216DAVISVP2,2013-05-08 21:24:00,
2013-05-08 17:29:00,68.4,59.0,29.95,ENE,64,2.0,12.0,72,0.00,,,0.02,WUHU216DAVISVP2,2013-05-08 21:29:00,
2013-05-08 17:34:00,68.3,59.5,29.95,SE,142,5.0,12.0,73,0.00,,,0.02,WUHU216DAVISVP2,2013-05-08 21:34:00,
2013-05-08 17:40:00,68.3,59.5,29.95,ESE,114,3.0,11.0,73,0.00,,,0.02,WUHU216DAVISVP2,2013-05-08 21:40:00,
2013-05-08 17:45:00,68.4,59.6,29.95,SE,124,4.0,9.0,73,0.00,,,0.02,WUHU216DAVISVP2,2013-05-08 21:45:00,
2013-05-08 17:50:00,68.5,59.3,29.95,East,79,9.0,9.0,72,0.00,,,0.02,WUHU216DAVISVP2,2013-05-08 21:50:00,
2013-05-08 17:56:00,68.6,59.7,29.95,ESE,105,4.0,10.0,73,0.00,,,0.02,WUHU216DAVISVP2,2013-05-08 21:56:00,
2013-05-08 18:02:00,68.4,59.6,29.95,ESE,122,3.0,10.0,73,0.00,,,0.02,WUHU216DAVISVP2,2013-05-08 22:02:00,
2013-05-08 18:07:00,67.4,59.0,29.95,SE,124,2.0,10.0,74,0.00,,,0.02,WUHU216DAVISVP2,2013-05-08 22:07:00,
2013-05-08 18:12:00,67.2,59.1,29.95,ENE,78,3.0,9.0,75,0.00,,,0.02,WUHU216DAVISVP2,2013-05-08 22:12:00,
2013-05-08 18:17:00,67.1,59.8,29.95,ESE,105,3.0,9.0,77,0.00,,,0.02,WUHU216DAVISVP2,2013-05-08 22:17:00,
2013-05-08 18:23:00,66.9,60.3,29.95,East,87,3.0,9.0,79,0.00,,,0.02,WUHU216DAVISVP2,2013-05-08 22:23:00,
2013-05-08 18:28:00,66.7,60.1,29.94,ENE,60,5.0,9.0,79,0.00,,,0.02,WUHU216DAVISVP2,2013-05-08 22:28:00,
2013-05-08 18:33:00,66.8,59.8,29.94,East,87,3.0,11.0,78,0.00,,,0.02,WUHU216DAVISVP2,2013-05-08 22:33:00,
2013-05-08 18:39:00,66.7,59.4,29.94,ESE,107,7.0,11.0,77,0.00,,,0.02,WUHU216DAVISVP2,2013-05-08 22:39:00,
2013-05-08 18:44:00,66.6,59.3,29.94,East,100,4.0,11.0,77,0.00,,,0.02,WUHU216DAVISVP2,2013-05-08 22:44:00,
2013-05-08 18:49:00,66.4,59.1,29.93,SE,134,1.0,11.0,77,0.00,,,0.02,WUHU216DAVISVP2,2013-05-08 22:49:00,
2013-05-08 18:55:00,66.3,58.9,29.93,ESE,113,4.0,10.0,77,0.00,,,0.02,WUHU216DAVISVP2,2013-05-08 22:55:00,
2013-05-08 19:04:00,66.1,59.1,29.94,SE,127,1.0,8.0,78,0.00,,,0.02,WUHU216DAVISVP2,2013-05-08 23:04:00,
2013-05-08 19:09:00,66.1,59.5,29.94,SE,127,0.0,8.0,79,0.00,,,0.02,WUHU216DAVISVP2,2013-05-08 23:09:00,
2013-05-08 19:16:00,65.9,59.6,29.93,East,96,0.0,5.0,80,0.00,,,0.02,WUHU216DAVISVP2,2013-05-08 23:16:00,
2013-05-08 19:21:00,65.7,59.4,29.93,East,94,1.0,6.0,80,0.00,,,0.02,WUHU216DAVISVP2,2013-05-08 23:21:00,
2013-05-08 19:27:00,65.6,59.3,29.93,SE,131,1.0,6.0,80,0.00,,,0.02,WUHU216DAVISVP2,2013-05-08 23:27:00,
2013-05-08 19:32:00,65.5,59.2,29.93,ENE,68,1.0,6.0,80,0.00,,,0.02,WUHU216DAVISVP2,2013-05-08 23:32:00,
2013-05-08 19:37:00,65.4,59.1,29.93,East,83,1.0,5.0,80,0.00,,,0.02,WUHU216DAVISVP2,2013-05-08 23:37:00,
2013-05-08 19:42:00,65.3,59.4,29.93,ESE,106,1.0,4.0,81,0.00,,,0.02,WUHU216DAVISVP2,2013-05-08 23:42:00,
2013-05-08 19:48:00,65.2,59.3,29.93,East,82,0.0,4.0,81,0.00,,,0.02,WUHU216DAVISVP2,2013-05-08 23:48:00,
2013-05-08 19:54:00,65.1,59.5,29.93,NE,50,0.0,4.0,82,0.00,,,0.02,WUHU216DAVISVP2,2013-05-08 23:54:00,
2013-05-08 19:59:00,64.9,59.6,29.92,NE,50,0.0,3.0,83,0.00,,,0.02,WUHU216DAVISVP2,2013-05-08 23:59:00,
2013-05-08 20:04:00,64.8,59.6,29.92,NNW,335,0.0,2.0,83,0.00,,,0.02,WUHU216DAVISVP2,2013-05-09 00:04:00,
2013-05-08 20:09:00,64.6,59.7,29.92,North,11,0.0,2.0,84,0.00,,,0.02,WUHU216DAVISVP2,2013-05-09 00:09:00,
2013-05-08 20:14:00,64.5,59.6,29.92,East,80,0.0,2.0,84,0.00,,,0.02,WUHU216DAVISVP2,2013-05-09 00:14:00,
2013-05-08 20:20:00,64.3,59.4,29.92,East,80,0.0,2.0,84,0.00,,,0.02,WUHU216DAVISVP2,2013-05-09 00:20:00,
2013-05-08 20:25:00,64.1,59.5,29.92,East,79,0.0,2.0,85,0.00,,,0.02,WUHU216DAVISVP2,2013-05-09 00:25:00,
2013-05-08 20:30:00,63.9,59.3,29.93,East,79,0.0,1.0,85,0.00,,,0.02,WUHU216DAVISVP2,2013-05-09 00:30:00,
2013-05-08 20:35:00,63.9,59.6,29.93,East,79,0.0,1.0,86,0.00,,,0.02,WUHU216DAVISVP2,2013-05-09 00:35:00,
2013-05-08 20:40:00,63.7,59.4,29.93,East,79,0.0,1.0,86,0.00,,,0.02,WUHU216DAVISVP2,2013-05-09 00:40:00,
2013-05-08 20:46:00,63.7,59.8,29.93,NNE,15,0.0,1.0,87,0.00,,,0.02,WUHU216DAVISVP2,2013-05-09 00:46:00,
2013-05-08 20:52:00,63.7,59.8,29.93,NNE,15,0.0,1.0,87,0.00,,,0.02,WUHU216DAVISVP2,2013-05-09 00:52:00,
2013-05-08 20:58:00,63.6,59.7,29.93,NNE,15,0.0,1.0,87,0.00,,,0.02,WUHU216DAVISVP2,2013-05-09 00:58:00,
2013-05-08 21:03:00,63.7,59.8,29.94,NNE,15,0.0,1.0,87,0.00,,,0.02,WUHU216DAVISVP2,2013-05-09 01:03:00,
2013-05-08 21:08:00,63.5,59.6,29.94,NNE,15,0.0,1.0,87,0.00,,,0.02,WUHU216DAVISVP2,2013-05-09 01:08:00,
2013-05-08 21:13:00,63.4,59.8,29.94,NNW,340,0.0,1.0,88,0.00,,,0.02,WUHU216DAVISVP2,2013-05-09 01:13:00,
2013-05-08 21:19:00,63.3,59.7,29.94,NNW,340,0.0,1.0,88,0.00,,,0.02,WUHU216DAVISVP2,2013-05-09 01:19:00,
2013-05-08 21:24:00,63.3,60.0,29.94,NNW,340,0.0,1.0,89,0.00,,,0.02,WUHU216DAVISVP2,2013-05-09 01:24:00,
2013-05-08 21:29:00,63.3,60.0,29.94,NNW,342,0.0,1.0,89,0.00,,,0.02,WUHU216DAVISVP2,2013-05-09 01:29:00,
2013-05-08 21:34:00,63.4,60.1,29.94,NNE,15,0.0,1.0,89,0.00,,,0.02,WUHU216DAVISVP2,2013-05-09 01:34:00,
2013-05-08 21:40:00,63.4,60.1,29.94,NNE,15,0.0,1.0,89,0.00,,,0.02,WUHU216DAVISVP2,2013-05-09 01:40:00,
2013-05-08 21:45:00,63.4,60.4,29.94,NNE,14,0.0,2.0,90,0.00,,,0.02,WUHU216DAVISVP2,2013-05-09 01:45:00,
2013-05-08 21:50:00,63.4,60.4,29.93,NE,36,1.0,2.0,90,0.00,,,0.02,WUHU216DAVISVP2,2013-05-09 01:50:00,
2013-05-08 21:56:00,63.3,60.3,29.93,NNE,30,0.0,2.0,90,0.00,,,0.02,WUHU216DAVISVP2,2013-05-09 01:56:00,
2013-05-08 22:01:00,63.2,60.2,29.93,NE,40,1.0,3.0,90,0.00,,,0.02,WUHU216DAVISVP2,2013-05-09 02:01:00,
2013-05-08 22:06:00,63.0,60.3,29.93,NE,44,2.0,3.0,91,0.00,,,0.02,WUHU216DAVISVP2,2013-05-09 02:06:00,
2013-05-08 22:12:00,62.9,60.2,29.93,NE,56,1.0,3.0,91,0.00,,,0.02,WUHU216DAVISVP2,2013-05-09 02:12:00,
2013-05-08 22:18:00,62.8,60.1,29.93,ENE,63,0.0,3.0,91,0.00,,,0.02,WUHU216DAVISVP2,2013-05-09 02:18:00,
2013-05-08 22:23:00,62.6,60.2,29.93,NE,47,0.0,3.0,92,0.00,,,0.02,WUHU216DAVISVP2,2013-05-09 02:23:00,
2013-05-08 22:28:00,62.5,60.1,29.93,NE,49,0.0,2.0,92,0.00,,,0.02,WUHU216DAVISVP2,2013-05-09 02:28:00,
2013-05-08 22:33:00,62.4,60.0,29.93,NE,36,2.0,2.0,92,0.00,,,0.02,WUHU216DAVISVP2,2013-05-09 02:33:00,
2013-05-08 22:39:00,62.2,59.8,29.93,NE,46,1.0,4.0,92,0.00,,,0.02,WUHU216DAVISVP2,2013-05-09 02:39:00,
2013-05-08 22:44:00,62.0,59.9,29.93,NE,37,2.0,4.0,93,0.00,,,0.02,WUHU216DAVISVP2,2013-05-09 02:44:00,
2013-05-08 22:50:00,62.0,59.9,29.92,NE,34,0.0,4.0,93,0.00,,,0.02,WUHU216DAVISVP2,2013-05-09 02:50:00,
2013-05-08 22:55:00,61.8,59.7,29.92,NE,38,2.0,4.0,93,0.00,,,0.02,WUHU216DAVISVP2,2013-05-09 02:55:00,
2013-05-08 23:00:00,61.7,59.6,29.92,NE,41,3.0,4.0,93,0.00,,,0.02,WUHU216DAVISVP2,2013-05-09 03:00:00,
2013-05-08 23:06:00,61.7,59.6,29.92,NE,49,1.0,4.0,93,0.00,,,0.02,WUHU216DAVISVP2,2013-05-09 03:06:00,
2013-05-08 23:11:00,61.6,59.5,29.92,East,98,1.0,4.0,93,0.00,,,0.02,WUHU216DAVISVP2,2013-05-09 03:11:00,
2013-05-08 23:16:00,61.6,59.5,29.92,NE,40,0.0,4.0,93,0.00,,,0.02,WUHU216DAVISVP2,2013-05-09 03:16:00,
2013-05-08 23:22:00,61.5,59.5,29.91,ENE,72,2.0,4.0,93,0.00,,,0.02,WUHU216DAVISVP2,2013-05-09 03:22:00,
2013-05-08 23:28:00,61.5,59.5,29.91,NE,51,0.0,4.0,93,0.00,,,0.02,WUHU216DAVISVP2,2013-05-09 03:28:00,
2013-05-08 23:33:00,61.4,59.3,29.91,NE,53,0.0,3.0,93,0.00,,,0.02,WUHU216DAVISVP2,2013-05-09 03:33:00,
2013-05-08 23:38:00,61.3,59.5,29.92,ESE,107,1.0,3.0,94,0.00,,,0.02,WUHU216DAVISVP2,2013-05-09 03:38:00,
2013-05-08 23:43:00,61.2,59.1,29.91,East,88,0.0,3.0,93,0.00,,,0.02,WUHU216DAVISVP2,2013-05-09 03:43:00,
2013-05-08 23:48:00,61.0,58.9,29.91,NE,56,0.0,3.0,93,0.00,,,0.02,WUHU216DAVISVP2,2013-05-09 03:48:00,
2013-05-08 23:53:00,61.0,58.9,29.92,SE,141,0.0,3.0,93,0.00,,,0.02,WUHU216DAVISVP2,2013-05-09 03:53:00,
2013-05-08 23:58:00,60.5,57.8,29.92,SSE,163,5.0,9.0,91,0.00,,,0.02,WUHU216DAVISVP2,2013-05-09 03:58:00,